Find Starlink 33715

NORAD ID: 63441 Int'l Des: 2025-069 Owner: SPXS Country: US Constellation: starlink operational
LEOCIRCULAR

当前视图

正在加载3D地球...

About Starlink 33715

Starlink 33715 (NORAD 63441) is a starlink constellation satellite (v2 mini) launched Apr 4, 2025 by SPXS of US. It operates in LEO, CIRCULAR orbit with a mass of 575.00 kg.

关于 Starlink 33715

正在加载描述...

即将过境

Passes for default location (London). Set your location on the main map for personalized predictions.

高度历史

Loading altitude history...

两行轨道根数

1 63441U 25069J 26169.86832681 .00038805 00000-0 70128-3 0 9991
2 63441 53.1590 26.9586 0001235 72.0493 288.0650 15.49350345 68973
Epoch: Jun 18, 2026 • Age: 9 hours

当前状态

高度 435.5 km
速度 7.65 km/s
星下点 -47.26°S, 93.11°W
发射日期 Apr 4, 2025
运行时间 1.2 years
类型 internet

技术详情

分类 Payload
质量 575.00 kg
干质量 530.00 kg
总质量 575.00 kg
长度 0.30 m
直径 4.10 m
跨度 29.00 m
形状 Box + pan
制造商 SPXS
平台类型 Starlink V2MO
阶段状态 In Orbit
所有者/国家 SPXS/US

Most Searched